User: anonymous   Login
Location: ????? ????
(37.9717°N, 23.4051°E)
Time: 17:50:23
(UTC+00:00)
Language:

Cosmos 1763 Rocket - Orbit

View from above orbital plane
View from above orbital plane
View from above satellite
View from above satellite

Ground track
Ground track

The orbit data is extracted from the following two-line orbital elements,

1 16864U 86052B   24177.05093201  .00000292  00000-0  97726-4 0  9995
2 16864  74.0295  27.1769 0033317 217.0641 142.8214 14.41412476992291
Epoch (UTC): 25 June 2024 01:13:20
Eccentricity: 0.0033317
inclination: 74.0295°
perigee height: 730 km
apogee height: 777 km
right ascension of ascending node: 27.1769°
argument of perigee: 217.0641°
revolutions per day: 14.41412476
mean anomaly at epoch: 142.8214°
orbit number at epoch: 99229

The dashed part of the orbit path shows where the satellite is in the earth's shadow,  

DLR